Rexburg, ID

6:31 PM MDT on August 25, 2016 (GMT -0600)
Rexburg-Madison County

Weather History for KRXE - April, 2013

Change the Weather History Date:

Wednesday, April 17, 2013

  Actual Average Record
Temperature  
Mean Temperature 30 °F 44 °F  
Max Temperature 41 °F 57 °F 74 °F (2001)
Min Temperature 19 °F 32 °F 19 °F (2013)
Degree Days  
Heating Degree Days 35 21  
Month to date heating degree days 402 389  
Since 1 July heating degree days 7062 7318  
Cooling Degree Days 0 0  
Month to date cooling degree days 0 0  
Year to date cooling degree days 0 0  
Moisture  
Dew Point 5 °F    
Average Humidity 42    
Maximum Humidity 62    
Minimum Humidity 21    
Precipitation  
Precipitation 0.00 in 0.05 in 0.62 in (2006)
Month to date precipitation 0.28 0.80  
Year to date precipitation 2.72 3.43  
Sea Level Pressure  
Sea Level Pressure 30.19 in    
Wind  
Wind Speed 11 mph (NNE)    
Max Wind Speed 21 mph    
Max Gust Speed 29 mph    
Visibility 10 miles    
Events      
T = Trace of Precipitation, MM = Missing Value Source: NWS Daily Summary

Daily Weather History Graph

Daily Weather History Graph

Search for Another Location

Airport or City:

Trip Planner

Search our weather history database for the weather conditions in past years. The results will help you decide how hot, cold, wet, or windy it might be!

Date:

Astronomy

Apr. 17, 2013 Rise Set
Actual Time 6:40 AM MDT 8:13 PM MDT
Civil Twilight 6:10 AM MDT 8:44 PM MDT
Nautical Twilight 5:33 AM MDT 9:20 PM MDT
Astronomical Twilight 4:54 AM MDT 10:00 PM MDT
Moon 11:54 AM MDT (4/17) 1:58 AM MDT (4/17)
Length of Visible Light 14h 33m
Length of Day
13h 33m
Waxing Crescent, 43% of the Moon is Illuminated
Apr 17
Waxing Crescent
Apr 18
First Quarter
Apr 25
Full
May 2
Last Quarter
May 9
New

Hourly Weather History & Observations

Time (MDT) Temp. Windchill Dew Point Humidity Pressure Visibility Wind Dir Wind Speed Gust Speed Precip Events Conditions
12:53 AM 26.1 °F 15.6 °F 8.1 °F 47% 30.11 in 10.0 mi NNE 11.5 mph 20.7 mph N/A   Clear
1:53 AM 23.0 °F 11.7 °F 9.0 °F 55% 30.13 in 10.0 mi NNE 11.5 mph - N/A   Clear
2:53 AM 23.0 °F 11.7 °F 8.1 °F 53% 30.13 in 10.0 mi NNE 11.5 mph - N/A   Clear
3:53 AM 21.0 °F 11.4 °F 8.1 °F 57% 30.14 in 10.0 mi NE 8.1 mph - N/A   Clear
4:53 AM 19.9 °F 11.1 °F 8.1 °F 60% 30.15 in 10.0 mi NNE 6.9 mph - N/A   Clear
5:53 AM 19.9 °F 14.9 °F 8.1 °F 60% 30.17 in 10.0 mi NE 3.5 mph - N/A   Clear
6:53 AM 19.0 °F 10.0 °F 7.0 °F 59% 30.18 in 10.0 mi NNE 6.9 mph - N/A   Clear
8:53 AM 26.1 °F 15.0 °F 5.0 °F 41% 30.20 in 10.0 mi North 12.7 mph - N/A   Clear
9:53 AM 28.9 °F 18.2 °F 3.9 °F 35% 30.19 in 10.0 mi NNE 13.8 mph 24.2 mph N/A   Clear
10:53 AM 32.0 °F 22.5 °F 3.0 °F 29% 30.18 in 10.0 mi NE 12.7 mph 19.6 mph N/A   Clear
11:53 AM 35.1 °F 28.6 °F 3.9 °F 27% 30.17 in 10.0 mi NE 8.1 mph 20.7 mph N/A   Clear
12:53 PM 36.0 °F 26.7 °F 3.9 °F 26% 30.17 in 10.0 mi North 15.0 mph 21.9 mph N/A   Clear
1:53 PM 37.0 °F 29.8 °F 1.9 °F 23% 30.17 in 10.0 mi NW 10.4 mph 21.9 mph N/A   Clear
2:53 PM 37.9 °F 29.6 °F 3.9 °F 24% 30.17 in 10.0 mi North 13.8 mph 21.9 mph N/A   Mostly Cloudy
3:53 PM 39.9 °F 32.5 °F 6.1 °F 25% 30.17 in 10.0 mi North 12.7 mph 21.9 mph N/A   Overcast
4:53 PM 39.0 °F 31.4 °F 3.9 °F 23% 30.19 in 10.0 mi North 12.7 mph 28.8 mph N/A   Mostly Cloudy
5:53 PM 37.9 °F 28.2 °F 3.9 °F 24% 30.21 in 10.0 mi North 18.4 mph 26.5 mph N/A   Partly Cloudy
6:53 PM 37.9 °F 29.2 °F 1.9 °F 22% 30.22 in 10.0 mi North 15.0 mph 23.0 mph N/A   Clear
7:53 PM 34.0 °F 24.6 °F 1.0 °F 25% 30.25 in 10.0 mi NNE 13.8 mph 24.2 mph N/A   Clear
8:53 PM 32.0 °F 22.5 °F 1.0 °F 27% 30.27 in 10.0 mi NNE 12.7 mph - N/A   Clear
9:53 PM 28.9 °F 19.2 °F 3.0 °F 33% 30.30 in 10.0 mi North 11.5 mph - N/A   Clear
10:53 PM 27.0 °F 18.0 °F 6.1 °F 41% 30.29 in 10.0 mi ENE 9.2 mph - N/A   Clear
11:53 PM 24.1 °F 19.7 °F 6.1 °F 46% 30.30 in 10.0 mi Variable 3.5 mph - N/A   Clear